TimeEDT,TemperatureF,Dew PointF,Humidity,Sea Level PressureIn,VisibilityMPH,Wind Direction,Wind SpeedMPH,Gust SpeedMPH,PrecipitationIn,Events,Conditions,WindDirDegrees,DateUTC
12:53 AM,35.1,32.0,89,30.09,10.0,Calm,Calm,-,N/A,,Clear,0,2013-10-27 04:53:00
1:53 AM,33.1,30.9,92,30.10,10.0,Calm,Calm,-,N/A,,Clear,0,2013-10-27 05:53:00
2:53 AM,30.9,28.9,92,30.09,10.0,Calm,Calm,-,N/A,,Clear,0,2013-10-27 06:53:00
3:53 AM,30.9,28.0,89,30.08,10.0,Calm,Calm,-,N/A,,Clear,0,2013-10-27 07:53:00
4:53 AM,30.0,28.0,92,30.09,5.0,Calm,Calm,-,N/A,,Clear,0,2013-10-27 08:53:00
5:49 AM,30.2,28.4,93,30.08,10.0,Calm,Calm,-,N/A,,Partly Cloudy,0,2013-10-27 09:49:00
5:53 AM,30.9,28.0,89,30.09,10.0,Calm,Calm,-,N/A,,Partly Cloudy,0,2013-10-27 09:53:00
6:53 AM,30.0,28.0,92,30.10,5.0,Calm,Calm,-,N/A,,Clear,0,2013-10-27 10:53:00
7:53 AM,28.9,27.0,92,30.12,7.0,Calm,Calm,-,N/A,,Clear,0,2013-10-27 11:53:00
8:07 AM,28.4,26.6,93,30.10,7.0,Calm,Calm,-,N/A,,Scattered Clouds,0,2013-10-27 12:07:00
8:21 AM,28.4,26.6,93,30.11,2.5,Calm,Calm,-,N/A,,Mostly Cloudy,0,2013-10-27 12:21:00
8:32 AM,28.4,28.4,100,30.11,1.2,Calm,Calm,-,N/A,,Overcast,0,2013-10-27 12:32:00
8:40 AM,30.2,28.4,93,30.11,0.2,Calm,Calm,-,N/A,Fog,Light Freezing Fog,0,2013-10-27 12:40:00
8:53 AM,30.9,30.0,96,30.13,0.2,Calm,Calm,-,N/A,Fog,Light Freezing Fog,0,2013-10-27 12:53:00
8:59 AM,32.0,30.2,93,30.12,1.5,Calm,Calm,-,N/A,,Scattered Clouds,0,2013-10-27 12:59:00
9:02 AM,32.0,30.2,93,30.11,3.0,Calm,Calm,-,N/A,,Scattered Clouds,0,2013-10-27 13:02:00
9:08 AM,32.0,32.0,100,30.11,1.8,Calm,Calm,-,N/A,,Partly Cloudy,0,2013-10-27 13:08:00
9:17 AM,33.8,33.8,100,30.12,3.0,Calm,Calm,-,N/A,,Clear,0,2013-10-27 13:17:00
9:53 AM,39.0,36.0,89,30.14,9.0,Calm,Calm,-,N/A,,Clear,0,2013-10-27 13:53:00
10:53 AM,46.9,39.0,74,30.14,10.0,Calm,Calm,-,N/A,,Clear,0,2013-10-27 14:53:00
11:53 AM,51.1,37.9,61,30.14,10.0,Calm,Calm,-,N/A,,Clear,0,2013-10-27 15:53:00
12:53 PM,55.0,30.0,38,30.13,10.0,Variable,5.8,-,N/A,,Clear,0,2013-10-27 16:53:00
1:53 PM,57.0,33.1,40,30.11,10.0,WSW,4.6,-,N/A,,Clear,240,2013-10-27 17:53:00
2:53 PM,57.0,33.1,40,30.09,10.0,Variable,3.5,-,N/A,,Clear,0,2013-10-27 18:53:00
3:53 PM,57.9,33.1,39,30.08,10.0,Calm,Calm,-,N/A,,Clear,0,2013-10-27 19:53:00
4:53 PM,57.0,33.1,40,30.08,10.0,Calm,Calm,-,N/A,,Clear,0,2013-10-27 20:53:00
5:53 PM,55.9,33.1,42,30.07,10.0,Calm,Calm,-,N/A,,Clear,0,2013-10-27 21:53:00
6:53 PM,45.0,36.0,71,30.08,10.0,Calm,Calm,-,N/A,,Clear,0,2013-10-27 22:53:00
7:53 PM,39.0,34.0,82,30.09,10.0,Calm,Calm,-,N/A,,Clear,0,2013-10-27 23:53:00
8:53 PM,37.0,33.1,86,30.09,10.0,Calm,Calm,-,N/A,,Clear,0,2013-10-28 00:53:00
9:53 PM,34.0,32.0,92,30.11,10.0,Calm,Calm,-,N/A,,Clear,0,2013-10-28 01:53:00
10:53 PM,33.1,30.9,92,30.12,10.0,Calm,Calm,-,N/A,,Clear,0,2013-10-28 02:53:00
11:53 PM,33.1,30.0,89,30.12,10.0,Calm,Calm,-,N/A,,Clear,0,2013-10-28 03:53:00